Location: Newark
(52.3735°N, 16.9806°E)
Time: 06:27:23
(UTC+00:00)

ISS - Pass Details

Date: 29 September 2021
Orbit: 417 x 423 km, 51.6° (Epoch: 27 October)

Event Time Altitude Azimuth Distance (km) Brightness Sun altitude
Rises 18:14:39 0° 281° (W) 2,367 1.9 -16.1°
Reaches altitude 10° 18:16:47 10° 275° (W) 1,502 0.3 -16.4°
Maximum altitude 18:20:03 48° 200° (SSW) 559 -3.2 -16.9°
Enters shadow 18:20:54 37° 155° (SSE) 668 -3.1 -17.0°
